Theta_e
338 339 339 340 339 328 324 321 319 316 315 315 313 312 310 312 322 325 334 343 343 341 340 339 336 336 339 340 340 342 346 346 346 347 344 347 347 344 342 342 341 340 339
334 335 335 336 337 337 336 329 321 317 313 312 311 310 308 308 311 320 331 334 341 340 340 339 336 335 336 339 337 338 341 342 342 343 347 346 346 345 344 344 343 343 342
321 327 330 332 335 335 334 334 331 324 316 314 310 309 308 308 308 312 320 328 332 338 337 337 336 334 335 338 337 335 336 336 338 340 341 342 343 344 344 344 343 342 343
309 309 311 321 330 330 330 331 331 328 323 314 311 310 308 308 307 307 313 318 323 326 333 336 334 334 333 335 337 333 333 334 333 334 337 337 337 339 341 341 341 343 342
308 307 308 308 311 323 325 325 326 326 326 324 316 313 312 308 307 309 307 314 316 316 320 332 334 333 331 331 335 333 331 332 332 331 332 333 333 334 334 335 337 339 339
305 305 307 307 307 308 311 321 320 322 324 324 325 321 313 312 309 306 306 310 314 314 314 317 323 324 330 328 331 333 330 328 330 329 330 329 329 330 330 331 331 333 334
305 303 304 306 306 306 306 308 310 315 315 318 319 321 318 317 311 307 308 307 308 313 312 312 317 315 318 327 330 330 331 328 327 326 326 326 326 327 327 328 328 329 330
304 304 301 303 304 304 304 304 305 307 310 314 311 315 311 313 315 315 307 308 307 310 312 312 313 313 311 315 317 328 329 329 328 327 325 325 324 324 324 325 325 325 326
304 303 302 302 301 302 302 303 303 303 303 309 313 310 307 304 306 315 314 309 307 308 310 311 312 311 310 313 318 322 327 329 329 328 326 325 324 323 323 323 324 323 323
302 303 302 302 301 302 300 300 302 300 301 301 307 313 310 310 305 304 311 311 313 308 307 307 311 311 311 309 318 320 324 327 328 329 328 327 325 324 324 323 323 323 323
301 302 302 302 300 300 301 300 299 299 299 298 299 302 306 306 307 307 305 308 311 311 307 307 309 309 308 308 309 317 324 325 326 328 329 329 329 326 325 324 324 324 323
299 301 302 301 300 300 301 301 300 299 299 299 299 300 302 303 301 301 303 305 306 310 311 311 308 307 307 308 313 319 325 325 325 327 328 328 327 327 325 325 325 324 324
297 298 299 299 300 300 301 302 301 299 298 298 299 300 301 302 305 305 303 302 303 308 309 310 309 309 310 311 310 319 323 324 324 325 326 325 325 326 324 324 324 325 325
298 298 299 299 299 300 300 300 300 299 299 299 300 301 301 302 302 306 305 302 296 301 305 306 309 311 308 310 313 322 316 322 324 324 325 323 323 324 325 323 323 323 324
300 300 299 299 300 300 300 299 299 298 299 299 300 299 301 304 302 302 303 307 302 296 298 304 306 312 313 310 313 313 310 321 323 323 323 322 322 323 323 323 322 323 323
297 297 297 298 299 299 299 298 298 298 298 299 300 298 299 303 305 303 303 303 306 302 297 301 306 309 313 313 313 312 310 319 322 322 320 319 320 321 322 322 322 322 323
296 296 296 297 297 297 298 298 298 298 297 298 300 299 298 300 303 303 303 304 305 304 299 300 303 307 311 311 310 309 310 309 315 321 321 319 319 320 320 320 320 321 322
296 296 296 295 295 296 296 296 297 298 297 297 299 299 298 300 301 301 303 300 303 306 300 297 300 302 305 310 310 307 306 309 310 319 321 320 319 319 319 319 319 320 319
295 295 296 295 294 294 295 295 296 297 297 297 298 298 299 299 299 301 301 300 300 302 302 300 299 301 303 305 308 307 303 303 308 316 321 320 319 318 319 318 318 317 316
295 295 296 296 295 295 295 295 295 296 296 297 299 299 299 298 298 299 301 299 300 299 301 302 302 300 300 302 304 303 302 303 301 309 316 316 319 319 318 318 317 315 314
295 295 295 295 295 295 296 295 295 295 296 296 298 299 299 301 304 303 299 299 301 298 300 300 297 297 297 298 299 303 301 301 301 301 305 306 311 312 312 317 314 314 313
294 294 294 295 294 296 299 300 298 295 295 296 296 298 298 302 302 305 306 306 302 296 295 299 300 299 296 298 299 302 300 298 297 301 298 298 305 304 306 307 313 314 314
294 293 294 294 294 295 300 301 300 296 295 296 296 297 298 300 301 300 302 307 306 307 306 298 299 300 297 298 301 299 300 299 298 300 299 298 298 298 301 306 311 312 313
293 294 294 294 293 294 299 300 300 296 296 296 297 298 298 296 298 298 299 297 296 298 300 302 299 299 299 300 301 305 302 301 301 303 301 297 298 297 300 302 310 311 312
293 293 294 292 292 293 298 298 298 295 295 295 297 298 298 298 300 302 300 298 296 296 305 307 306 308 309 310 306 302 301 299 298 300 302 298 300 297 298 298 301 310 310
293 294 294 293 294 293 297 298 297 295 293 294 296 296 300 299 301 303 297 294 293 293 295 296 296 302 305 306 311 304 303 299 297 295 300 301 298 299 296 298 299 301 304
Wind_Speed
6 6 6 6 6 2 3 3 3 4 5 6 6 7 7 6 6 2 3 13 12 11 11 10 9 9 7 7 6 5 6 6 9 12 12 12 15 12 11 10 10 9 8
3 4 5 5 6 5 7 6 5 4 5 5 7 7 7 6 5 4 5 6 13 13 13 13 12 11 11 10 8 7 7 6 7 4 15 12 12 11 11 11 11 10 9
5 3 3 3 4 5 6 7 7 6 5 4 5 5 5 7 6 6 6 6 7 13 13 14 14 13 13 13 12 10 9 8 8 8 9 9 9 9 9 10 9 5 10
6 6 5 4 4 2 3 4 6 7 6 5 4 5 5 5 8 7 5 5 6 6 11 15 16 16 15 15 14 12 12 11 10 10 10 9 9 9 9 10 10 10 8
7 4 4 5 7 3 2 3 3 3 7 8 7 5 6 5 6 6 7 7 8 7 6 15 17 16 17 16 17 15 13 13 12 11 11 10 10 10 10 9 9 10 10
6 5 4 5 6 4 4 3 4 3 4 5 10 11 6 6 5 6 7 5 7 8 7 7 8 8 17 18 18 17 16 15 14 13 13 12 11 11 10 10 9 8 8
6 5 4 5 5 4 5 5 3 4 3 2 5 7 7 10 8 5 6 5 7 8 8 6 6 5 8 19 18 19 18 17 16 15 15 14 13 12 11 10 10 9 8
7 5 5 6 6 4 5 5 4 3 3 2 2 4 4 4 8 8 5 7 7 5 9 10 8 8 7 7 9 18 17 19 18 17 16 15 14 13 12 11 11 10 9
7 7 7 6 6 4 4 4 4 5 4 4 6 3 4 4 4 3 10 7 9 7 8 9 11 9 8 8 11 13 15 18 20 19 18 16 15 14 13 13 12 11 10
8 8 7 7 6 5 6 5 4 4 2 4 3 6 5 4 3 5 3 5 7 7 8 6 9 9 10 6 14 15 18 17 17 21 19 19 16 16 15 13 13 12 11
8 8 10 11 7 5 6 6 5 5 4 3 4 3 5 5 5 7 9 10 8 5 4 5 8 7 8 7 6 13 20 21 18 17 20 21 20 18 16 15 14 13 12
5 7 7 7 7 6 7 6 7 6 5 5 4 5 4 4 4 4 7 10 9 10 8 10 2 5 5 6 11 15 22 22 21 19 16 16 18 18 18 16 16 14 13
6 6 7 7 6 8 7 6 6 6 6 5 6 7 5 6 5 6 6 6 6 4 4 6 5 5 7 6 8 13 21 22 22 22 20 17 16 16 17 17 15 16 15
9 8 11 9 11 12 13 10 8 6 6 6 11 12 9 7 5 5 7 6 3 5 2 5 5 7 5 5 9 15 11 23 23 23 22 20 17 16 14 16 16 14 15
10 12 11 12 12 14 13 11 8 7 8 10 11 8 8 9 7 5 4 7 8 6 8 3 4 5 7 5 8 10 9 20 23 23 22 21 20 18 16 16 16 14 14
12 13 14 15 15 13 9 9 10 11 11 12 12 10 10 10 10 8 8 6 7 9 7 5 6 6 4 8 12 10 12 17 23 22 22 20 20 19 18 16 15 13 13
13 13 14 15 15 16 15 13 14 14 11 15 16 14 14 14 8 6 5 5 6 7 8 5 5 6 9 7 9 7 9 8 11 23 23 21 20 19 19 17 14 13 12
13 14 14 15 16 17 16 17 16 15 14 15 14 14 15 10 11 7 8 7 8 4 6 6 5 3 4 5 8 9 5 7 7 18 22 21 20 19 18 17 15 13 12
17 19 18 17 18 19 18 17 18 16 16 16 12 11 10 13 13 10 10 9 5 7 4 5 5 4 2 2 3 4 4 4 7 14 20 20 20 19 18 17 15 14 13
18 18 17 18 18 19 19 19 17 17 14 15 13 8 14 10 10 9 8 6 3 6 4 4 4 3 3 2 2 5 6 3 4 8 13 14 17 19 19 18 16 15 14
17 19 19 20 18 17 13 18 17 15 15 14 17 12 12 13 19 24 9 9 12 7 3 4 3 3 3 2 4 3 5 4 4 3 5 5 7 8 9 16 13 17 15
19 17 19 20 19 16 25 33 27 17 17 18 16 11 11 20 14 17 28 8 9 5 3 2 2 5 5 5 4 5 3 3 4 3 4 4 7 7 6 6 14 15 17
18 19 18 18 19 17 26 28 32 18 15 13 12 10 10 12 13 7 23 23 25 18 16 5 5 5 5 6 5 5 6 4 4 3 5 6 5 6 5 8 17 18 19
18 17 18 17 15 16 25 29 29 16 13 12 13 13 9 8 6 11 12 17 7 7 7 7 7 7 6 6 6 6 8 6 1 1 7 6 4 5 5 6 16 19 20
17 17 16 16 18 14 26 26 23 11 9 11 12 11 11 12 13 30 14 5 4 3 8 11 10 13 16 18 12 4 3 5 6 6 4 4 3 4 4 4 5 13 14
18 15 15 15 19 16 22 24 21 8 9 8 7 9 18 14 21 26 5 7 7 5 5 3 4 9 13 11 20 7 5 7 5 3 5 7 3 4 2 2 4 4 6
Wind_Direction
354 347 342 340 335 291 214 257 264 248 236 223 234 243 262 263 234 214 149 159 168 182 197 204 206 202 195 180 170 152 126 150 160 191 184 176 176 175 170 167 164 165 171
360 354 336 332 323 352 344 340 313 255 248 225 238 242 254 277 273 227 154 168 175 187 202 210 208 208 204 198 188 176 164 146 130 109 190 183 183 185 182 178 178 188 191
357 327 297 313 324 334 335 323 325 329 318 297 264 260 240 233 256 251 180 174 178 188 203 216 212 211 208 204 195 193 182 171 164 144 138 144 148 154 161 168 162 176 206
1 355 348 322 273 265 321 324 322 312 308 292 278 269 251 241 229 237 219 181 173 183 200 209 214 214 213 210 196 199 198 184 175 168 164 164 152 148 154 157 156 134 117
351 357 339 323 325 305 245 262 289 297 316 314 297 264 258 249 228 220 231 202 187 173 183 206 207 213 213 212 205 200 198 195 187 181 177 169 164 161 161 169 163 150 138
335 344 327 312 311 320 315 261 245 267 276 279 300 300 285 266 232 222 218 214 193 185 177 189 201 205 211 215 212 206 203 202 197 193 189 183 185 182 177 169 165 169 156
316 326 309 297 301 302 281 284 271 250 273 298 312 285 276 277 278 235 212 209 209 197 185 178 185 185 206 214 216 212 207 204 202 198 196 192 190 187 186 184 175 164 164
296 289 293 283 277 280 289 298 293 287 258 208 238 296 288 277 255 259 244 218 214 188 194 197 177 192 189 198 209 214 211 205 203 201 200 198 197 192 190 183 179 175 170
290 275 268 268 283 279 263 267 273 271 260 246 183 189 291 258 334 268 240 222 206 206 193 194 200 193 187 188 198 207 209 212 205 203 201 202 200 197 194 191 188 185 181
293 290 277 268 264 257 259 247 253 248 282 274 265 194 205 190 279 315 338 340 329 237 199 193 199 199 199 178 191 196 206 206 215 204 202 204 202 203 197 197 194 193 190
276 274 280 277 272 263 252 253 270 269 248 258 242 236 219 205 212 239 274 289 307 316 313 211 190 199 190 187 178 195 198 204 208 217 207 203 201 202 205 200 198 198 195
286 287 291 298 287 274 257 247 240 234 251 257 257 265 216 191 195 194 239 256 269 287 294 313 216 212 186 187 192 188 191 198 204 208 211 207 211 206 206 207 202 202 197
296 287 283 277 287 288 283 278 260 244 236 239 245 258 258 233 203 192 204 240 239 260 255 265 304 263 208 187 186 184 192 194 200 205 204 203 212 208 213 210 211 206 202
294 295 292 274 275 275 274 273 271 256 252 246 249 244 250 254 230 220 197 195 246 234 237 231 263 281 281 183 192 188 195 194 197 200 205 201 205 207 216 212 212 216 213
305 308 309 299 291 279 265 272 273 264 265 275 260 234 238 244 232 224 227 214 205 230 244 245 251 280 301 270 206 195 184 198 197 196 201 203 200 201 208 212 215 216 219
306 308 306 305 299 285 277 267 270 266 258 261 256 249 254 259 238 215 216 222 211 212 232 206 223 217 170 292 248 202 196 188 196 197 199 203 202 200 201 209 211 217 220
295 294 299 299 299 299 296 277 268 254 255 262 257 238 245 247 244 228 237 209 211 201 219 244 217 208 206 233 302 210 188 178 196 199 199 199 201 200 200 203 205 212 213
322 314 304 299 299 297 294 289 283 285 271 264 261 239 236 247 250 220 215 209 235 216 187 198 210 235 188 170 254 280 190 184 173 203 201 199 199 197 199 200 198 199 198
311 302 290 293 291 285 282 281 279 274 269 270 259 269 249 243 241 218 233 242 196 256 196 175 225 197 192 112 184 260 224 178 188 190 199 198 198 198 195 197 190 191 194
292 290 289 286 285 282 281 281 277 276 266 278 261 267 285 247 265 228 266 224 202 226 216 180 176 185 162 236 174 218 210 206 190 176 191 192 194 198 198 193 194 194 193
291 285 287 287 282 277 274 272 266 271 283 273 266 247 257 246 253 250 209 214 201 225 225 175 157 158 167 178 215 255 190 176 213 160 161 175 180 185 200 202 206 205 194
292 289 287 283 288 279 277 278 278 270 255 250 262 260 261 271 267 311 287 224 282 214 232 121 201 195 193 180 186 253 206 155 194 208 121 197 169 189 186 200 206 205 205
294 291 283 286 280 281 282 273 275 271 264 258 250 246 246 259 276 216 252 255 215 224 228 189 226 221 193 197 163 218 228 193 185 206 153 186 170 188 185 204 203 209 211
294 291 286 280 276 275 275 277 276 271 263 259 250 249 235 236 269 261 273 247 194 197 217 234 219 193 210 205 202 219 220 219 215 263 184 193 166 188 175 204 201 207 213
291 289 284 287 284 281 275 282 280 278 273 254 253 249 242 236 244 260 210 205 278 218 199 206 251 263 253 224 206 168 208 198 213 214 174 145 179 158 168 190 208 201 200
288 287 282 284 278 272 269 283 278 270 253 245 244 245 243 240 231 257 221 173 197 201 175 197 237 255 255 251 229 197 182 211 208 206 204 184 149 137 172 226 196 203 207